This demonstration page uses our WeatherBlox Daily Observations layout. Learn more.

Left ArrowRight Arrow

Hourly Observations for June 26, 2015

Temp ( °F °C ) Dew Point ( °F °C ) Humidity (%) Winds ( mph kmh ) Pressure ( in mb ) Visibility ( mi km ) Precip ( " mm )
1:54 am 01:54 undefined 69 20.6 66 18.9 90 90 NNE 7 11 29.94 1014 10 16.0934 N/A
2:54 am 02:54 Cloudy 70 21.1 66 18.9 87 87 NE 7 11 29.95 1014 10 16.0934 N/A
3:54 am 03:54 Clear 68 20 65 18.3 90 90 N 8 13 29.96 1015 10 16.0934 N/A
4:54 am 04:54 Clear 69 20.6 65 18.3 87 87 NNE 7 11 29.96 1015 10 16.0934 N/A
5:54 am 05:54 Clear 68 20 65 18.3 90 90 N 7 11 29.97 1015 10 16.0934 N/A
6:54 am 06:54 Sunny 68 20 65 18.3 90 90 N 8 13 29.98 1015 9 14.48406 N/A
7:43 am 07:43 Mostly Cloudy 70 21.1 65 18.3 84 84 N 15 24 30 1016 10 16.0934 N/A
7:54 am 07:54 Mostly Cloudy 69 20.6 64 17.8 84 84 N 12 19 30.01 1016 10 16.0934 N/A
8:09 am 08:09 Partly Cloudy 69 20.6 64 17.8 84 84 N 12 19 30 1016 10 16.0934 N/A
8:54 am 08:54 Mostly Cloudy 72 22.2 64 17.8 76 76 N 16 26 30.02 1017 10 16.0934 N/A
9:54 am 09:54 Cloudy 71 21.7 62 16.7 73 73 N 12 19 30.03 1017 10 16.0934 N/A
10:54 am 10:54 Mostly Sunny 75 23.9 61 16.1 62 62 NNE 10 17 30.02 1017 10 16.0934 N/A
11:54 am 11:54 Mostly Cloudy 77 25 60 15.6 56 56 NNE 10 17 30.03 1017 10 16.0934 N/A
12:54 pm 12:54 Mostly Sunny 79 26.1 58 14.4 49 49 NNW 12 19 30.03 1017 10 16.0934 N/A
1:54 pm 13:54 Mostly Cloudy 79 26.1 60 15.6 52 52 N 13 20 30.02 1017 10 16.0934 N/A
2:54 pm 14:54 Mostly Cloudy 78 25.6 61 16.1 56 56 NNE 13 20 30.02 1017 10 16.0934 N/A
3:54 pm 15:54 Mostly Sunny 84 28.9 61 16.1 46 46 NNE 16 26 30.02 1017 10 16.0934 N/A
4:54 pm 16:54 Mostly Sunny 82 27.8 60 15.6 47 47 NNE 14 22 30.01 1016 10 16.0934 N/A
5:54 pm 17:54 Sunny 82 27.8 55 12.8 40 40 N 16 26 30.01 1016 10 16.0934 N/A
6:54 pm 18:54 Sunny 82 27.8 60 15.6 47 47 NNE 14 22 30.01 1016 10 16.0934 N/A
7:54 pm 19:54 Sunny 78 25.6 61 16.1 56 56 NNE 10 17 30.02 1017 10 16.0934 N/A
8:54 pm 20:54 Cloudy 74 23.3 61 16.1 64 64 ENE 8 13 30.03 1017 10 16.0934 N/A
9:54 pm 21:54 Clear 71 21.7 61 16.1 71 71 N N/A 30.06 1018 10 16.0934 N/A
10:54 pm 22:54 Clear 67 19.4 61 16.1 81 81 N 5 7 30.08 1019 10 16.0934 N/A
11:54 pm 23:54 Clear 66 18.9 61 16.1 84 84 NNW 5 7 30.08 1019 9 14.48406 N/A

Powered by AerisWeather